AEROCUBE 5C

Last updated on Wed Oct 29 2025 00:03:53 GMT+0000 (Coordinated Universal Time)

1 40965U 15058B 25301.24667377 .00003375 00000+0 30459-3 0 9997 2 40965 64.7672 263.2671 0143833 152.9351 207.9357 14.89694312331088
UTC large
Height (km)
Speed (km/s)
/
Latitude / Longitude
Inclination (degrees)
Orbital Period (minutes)
Azimuth
Elevation
Range (km)
Doppler Factor

Next 0 passes for location: London (51.5072 / 0.1276)

Sorry there are no passes over London.